EW9770 Weather Reports


Display with metric or nautical units.
time (UTC)temp
F
wind
direction
speed
MPH
gust
MPH
rain 1hr
in
rain 24hr
in
rain mn
in
humidity
%
barometer
mb
20260510044553 66 57 0.0 0.0 0.00 0.00 0.00 91 1012.7
20260510043101 67 55 0.0 0.0 0.00 0.00 0.00 91 1012.7
20260510041552 67 82 0.0 0.0 0.00 0.00 0.00 90 1012.5
20260510040052 67 83 0.0 0.0 0.00 0.00 0.00 90 1012.7
20260510034550 68 67 0.0 0.0 0.00 0.00 0.00 90 1012.7
20260510033100 68 67 0.0 0.0 0.00 0.00 0.00 90 1012.4
20260510031550 68 65 0.0 0.0 0.00 0.00 0.00 89 1012.2
20260510030048 69 70 0.0 0.0 0.00 0.00 0.00 89 1012.0
20260510024548 69 63 0.0 0.0 0.00 0.00 0.00 88 1012.0
20260510023044 69 61 0.0 0.0 0.00 0.00 0.00 88 1011.8
20260510021644 69 63 0.0 1.0 0.00 0.00 0.00 88 1011.7
20260510020043 70 62 0.0 0.0 0.00 0.00 0.00 87 1011.5
20260510014544 71 63 0.0 0.0 0.00 0.00 0.00 87 1011.3
20260510013049 71 63 0.0 0.0 0.00 0.00 0.00 86 1011.2
20260510011544 72 65 0.0 0.0 0.00 0.00 0.00 85 1010.9
20260510010040 73 65 0.0 0.0 0.00 0.00 0.00 84 1010.6
20260510004543 74 67 0.0 0.0 0.00 0.00 0.00 82 1010.5
20260510003041 74 63 0.0 0.0 0.00 0.00 0.00 82 1010.5
20260510001542 75 66 0.0 0.0 0.00 0.00 0.00 80 1010.3
20260510000047 75 63 0.0 0.0 0.00 0.00 0.00 78 1010.1
20260509234537 76 73 0.0 0.0 0.00 0.00 0.00 76 1010.0
20260509233037 76 54 0.0 0.0 0.00 0.00 0.00 75 1010.0
20260509231540 77 55 0.0 0.0 0.00 0.00 0.00 74 1009.9
20260509230036 78 57 0.0 0.0 0.00 0.00 0.00 72 1009.8
20260509224536 78 57 0.0 0.0 0.00 0.00 0.00 71 1009.8
20260509223036 78 57 0.0 0.0 0.00 0.00 0.00 71 1009.8
20260509221537 79 57 0.0 0.0 0.00 0.00 0.00 69 1009.6
20260509220034 80 57 0.0 1.0 0.00 0.00 0.00 69 1009.6
20260509214537 81 57 0.0 2.0 0.00 0.00 0.00 67 1009.4
20260509213035 83 57 0.0 3.0 0.00 0.00 0.00 64 1009.5
20260509211532 83 49 1.0 3.0 0.00 0.00 0.00 61 1009.4
20260509210034 83 295 0.0 2.0 0.00 0.00 0.00 62 1009.8
20260509204535 83 305 0.0 3.0 0.00 0.00 0.00 60 1009.9
20260509203028 82 128 0.0 3.0 0.00 0.00 0.00 63 1009.9
20260509201526 82 199 0.0 0.0 0.00 0.00 0.00 62 1010.4
20260509200025 81 94 0.0 0.0 0.00 0.00 0.00 65 1010.5
20260509194529 82 105 0.0 0.0 0.00 0.00 0.00 67 1010.5
20260509193029 79 121 0.0 0.0 0.00 0.00 0.00 69 1010.6
20260509191537 80 120 0.0 0.0 0.00 0.00 0.00 67 1010.8
20260509190028 80 120 0.0 0.0 0.00 0.00 0.00 65 1010.8
20260509184532 81 124 0.0 0.0 0.00 0.00 0.00 64 1010.9
20260509183029 81 125 0.0 0.0 0.00 0.00 0.00 63 1011.0
20260509181519 80 90 0.0 0.0 0.00 0.00 0.00 64 1010.9
20260509180019 82 90 0.0 0.0 0.00 0.00 0.00 61 1011.2
20260509174521 81 298 0.0 0.0 0.00 0.00 0.00 65 1011.2
20260509173011 80 298 0.0 0.0 0.00 0.00 0.00 66 1011.4
20260509171512 79 295 0.0 0.0 0.00 0.00 0.00 67 1011.4
20260509170010 80 261 0.0 0.0 0.00 0.00 0.00 66 1011.5
20260509164506 79 325 0.0 0.0 0.00 0.00 0.00 67 1011.4
20260509163003 78 288 0.0 0.0 0.00 0.00 0.00 68 1011.3
20260509161501 78 5 0.0 0.0 0.00 0.00 0.00 69 1011.3
20260509160056 77 301 0.0 0.0 0.00 0.00 0.00 69 1011.4
20260509154554 76 317 0.0 0.0 0.00 0.00 0.00 72 1011.4
20260509153103 75 331 0.0 0.0 0.00 0.00 0.00 71 1011.3
20260509151549 75 317 0.0 0.0 0.00 0.00 0.00 73 1011.3
20260509150045 73 131 0.0 0.0 0.00 0.00 0.00 77 1011.3
20260509144543 72 137 0.0 0.0 0.00 0.00 0.00 77 1011.4
20260509143040 71 137 0.0 0.0 0.00 0.00 0.00 80 1011.6
20260509141535 69 137 0.0 0.0 0.00 0.00 0.00 82 1011.7
20260509140032 68 137 0.0 0.0 0.00 0.00 0.00 86 1011.9
20260509134528 65 137 0.0 0.0 0.00 0.00 0.00 92 1011.9
20260509133023 62 137 0.0 0.0 0.00 0.00 0.00 95 1011.9
20260509131521 60 137 0.0 0.0 0.00 0.00 0.00 95 1011.7
20260509130030 59 137 0.0 0.0 0.00 0.00 0.00 95 1011.8
20260509124520 58 134 0.0 0.0 0.00 0.00 0.00 95 1011.7
20260509123018 57 134 0.0 0.0 0.00 0.00 0.00 95 1011.5
20260509121523 57 133 0.0 0.0 0.00 0.00 0.00 94 1011.5
20260509120014 57 134 0.0 0.0 0.00 0.00 0.00 94 1011.4
20260509114512 57 134 0.0 0.0 0.00 0.00 0.00 94 1011.2
20260509113011 57 134 0.0 0.0 0.00 0.00 0.00 94 1010.9
20260509111509 57 134 0.0 0.0 0.00 0.00 0.00 93 1010.5
20260509110008 57 134 0.0 0.0 0.00 0.00 0.00 93 1010.4
20260509104510 58 134 0.0 0.0 0.00 0.00 0.00 93 1010.2
20260509103006 58 134 0.0 0.0 0.00 0.00 0.00 93 1010.0
20260509101509 58 134 0.0 0.0 0.00 0.00 0.00 93 1009.6
20260509100002 59 134 0.0 0.0 0.00 0.00 0.00 93 1009.6
20260509094502 59 134 0.0 0.0 0.00 0.00 0.00 93 1009.6
20260509093002 59 134 0.0 0.0 0.00 0.00 0.00 92 1009.8
20260509091608 59 134 0.0 0.0 0.00 0.00 0.00 92 1009.9
20260509090106 60 134 0.0 0.0 0.00 0.00 0.00 92 1010.0
20260509090000 60 134 0.0 0.0 0.00 0.00 0.00 92 1010.0
20260509084603 60 134 0.0 0.0 0.00 0.00 0.00 93 1009.8
20260509083103 59 134 0.0 0.0 0.00 0.00 0.00 92 1009.4
20260509081557 59 134 0.0 0.0 0.00 0.00 0.00 91 1009.3
20260509080056 60 134 0.0 0.0 0.00 0.00 0.00 91 1009.7
20260509074557 60 134 0.0 0.0 0.00 0.00 0.00 91 1010.0
20260509073054 60 134 0.0 0.0 0.00 0.00 0.00 91 1009.9
20260509071550 60 134 0.0 0.0 0.00 0.00 0.00 91 1009.9
20260509070046 60 134 0.0 1.0 0.00 0.00 0.00 91 1009.9
20260509064541 59 134 0.0 1.0 0.00 0.00 0.00 92 1010.0
20260509063040 59 134 0.0 1.0 0.00 0.00 0.00 92 1010.0
20260509061543 58 134 0.0 1.0 0.00 0.00 0.00 91 1010.1
20260509060043 59 134 0.0 0.0 0.00 0.00 0.00 91 1010.2
20260509054535 59 134 0.0 0.0 0.00 0.00 0.00 91 1010.6
20260509053049 59 135 0.0 0.0 0.00 0.00 0.00 90 1010.9
20260509051541 59 135 0.0 0.0 0.00 0.00 0.00 90 1011.3
20260509050031 59 135 0.0 0.0 0.00 0.00 0.00 90 1012.1